OCN8NT EDDF-GCTS

Flight info

Callsign OCN8NT
Flight time 4h 45m
Altitude 35000
Route SOBRA1F/25C SOBRA Y180 DIK UN857 TOLVU DCT RAPOR DCT ESTOC DCT PON DCT DITAL DCT GODIX DCT DIDAK DCT KURIS DCT TERPO/N0442F370 DCT ERIGA DCT FUJTI DCT ATLEN DCT ABUPI DCT ULVAX DCT NATID DCT CASLU DCT BEXAL UN866 KONBA
Aircraft A320/M-SDE2E3FGIJ1LORWXYZ/HB1

Departure

Time 2026-05-07 10:20
Airport Frankfurt Main Airport (EDDF)

Arrival

Time 2026-05-07 15:06
Airport Tenerife Sur Airport (GCTS)
Time Latitude Longitude Altitude Speed Heading
2026-05-07 09:39 50.04999 8.59216 362 ft 0 kts 160°
2026-05-07 10:11 50.05012 8.59208 364 ft 4 kts 160°
2026-05-07 10:11 50.05038 8.59194 363 ft 4 kts 160°
2026-05-07 10:11 50.05058 8.59183 361 ft 4 kts 184°
2026-05-07 10:12 50.05076 8.59199 367 ft 4 kts 244°
2026-05-07 10:12 50.05083 8.59226 361 ft 0 kts 250°
2026-05-07 10:15 50.05082 8.59223 361 ft 2 kts 250°
2026-05-07 10:15 50.05072 8.59179 363 ft 7 kts 250°
2026-05-07 10:16 50.05054 8.59102 362 ft 9 kts 251°
2026-05-07 10:16 50.05030 8.58998 361 ft 11 kts 249°
2026-05-07 10:16 50.05004 8.58889 359 ft 11 kts 249°
2026-05-07 10:16 50.04978 8.58783 362 ft 10 kts 249°
2026-05-07 10:17 50.04948 8.58690 360 ft 9 kts 225°
2026-05-07 10:17 50.04899 8.58679 361 ft 6 kts 168°
2026-05-07 10:17 50.04842 8.58709 363 ft 9 kts 160°
2026-05-07 10:17 50.04792 8.58737 367 ft 8 kts 160°
2026-05-07 10:18 50.04723 8.58766 371 ft 11 kts 176°
2026-05-07 10:18 50.04659 8.58760 370 ft 9 kts 186°
2026-05-07 10:18 50.04603 8.58735 371 ft 8 kts 209°
2026-05-07 10:18 50.04540 8.58675 371 ft 11 kts 195°
2026-05-07 10:19 50.04495 8.58621 370 ft 0 kts 247°
2026-05-07 10:19 50.04494 8.58616 370 ft 4 kts 247°
2026-05-07 10:19 50.04414 8.58281 369 ft 69 kts 250°
2026-05-07 10:19 50.04171 8.57269 367 ft 128 kts 249°
2026-05-07 10:20 50.03804 8.55729 404 ft 169 kts 250°
2026-05-07 10:20 50.03403 8.54062 1156 ft 163 kts 251°
2026-05-07 10:20 50.03010 8.52410 1810 ft 166 kts 252°
2026-05-07 10:20 50.02446 8.50714 2083 ft 191 kts 226°
2026-05-07 10:21 50.01278 8.49501 2324 ft 217 kts 201°
2026-05-07 10:21 49.99775 8.48754 2763 ft 233 kts 199°
2026-05-07 10:21 49.98202 8.47997 3487 ft 238 kts 199°
2026-05-07 10:21 49.96612 8.47209 4278 ft 241 kts 200°
2026-05-07 10:22 49.95010 8.46388 5087 ft 244 kts 200°
2026-05-07 10:22 49.93423 8.45421 5833 ft 246 kts 212°
2026-05-07 10:22 49.92070 8.43807 6574 ft 247 kts 226°
2026-05-07 10:22 49.90827 8.41952 7307 ft 249 kts 226°
2026-05-07 10:23 49.89591 8.40108 8060 ft 251 kts 226°
2026-05-07 10:23 49.88331 8.38224 8868 ft 252 kts 227°
2026-05-07 10:23 49.87073 8.36341 9716 ft 252 kts 228°
2026-05-07 10:23 49.86046 8.34183 10423 ft 250 kts 249°
2026-05-07 10:24 49.85678 8.31445 10698 ft 268 kts 271°
2026-05-07 10:24 49.85707 8.28475 10893 ft 291 kts 272°
2026-05-07 10:24 49.85751 8.25218 11093 ft 313 kts 272°
2026-05-07 10:24 49.85795 8.21775 11572 ft 324 kts 272°
2026-05-07 10:25 49.85830 8.18258 12207 ft 329 kts 271°
2026-05-07 10:25 49.85860 8.14676 12828 ft 335 kts 272°
2026-05-07 10:25 49.85888 8.11043 13482 ft 339 kts 272°
2026-05-07 10:25 49.85914 8.07367 14081 ft 344 kts 271°
2026-05-07 10:26 49.85939 8.03650 14650 ft 347 kts 272°
2026-05-07 10:26 49.85964 7.99889 15238 ft 351 kts 271°
2026-05-07 10:26 49.85988 7.96099 15848 ft 353 kts 272°
2026-05-07 10:26 49.86013 7.92279 16457 ft 356 kts 271°
2026-05-07 10:27 49.86033 7.88430 17055 ft 359 kts 271°
2026-05-07 10:27 49.86048 7.84556 17641 ft 361 kts 271°
2026-05-07 10:27 49.86066 7.80643 18199 ft 364 kts 271°
2026-05-07 10:27 49.86255 7.76720 18682 ft 367 kts 281°
2026-05-07 10:28 49.86829 7.72853 19161 ft 369 kts 284°
2026-05-07 10:28 49.87443 7.68989 19682 ft 370 kts 284°
2026-05-07 10:28 49.88050 7.65095 20171 ft 373 kts 284°
2026-05-07 10:28 49.88647 7.61227 20651 ft 375 kts 284°
2026-05-07 10:29 49.89252 7.57283 21125 ft 377 kts 284°
2026-05-07 10:29 49.89862 7.53316 21568 ft 380 kts 284°
2026-05-07 10:29 49.90474 7.49310 22036 ft 383 kts 284°
2026-05-07 10:30 49.91710 7.41223 22931 ft 388 kts 284°
2026-05-07 10:30 49.92333 7.37132 23399 ft 390 kts 284°
2026-05-07 10:30 49.92958 7.33019 23799 ft 393 kts 283°
2026-05-07 10:30 49.93586 7.28882 24161 ft 395 kts 283°
2026-05-07 10:31 49.94215 7.24721 24489 ft 398 kts 283°
2026-05-07 10:31 49.94847 7.20518 24805 ft 401 kts 283°
2026-05-07 10:31 49.95481 7.16292 25151 ft 403 kts 283°
2026-05-07 10:31 49.96118 7.12036 25483 ft 406 kts 283°
2026-05-07 10:32 49.96758 7.07758 25814 ft 408 kts 283°
2026-05-07 10:32 49.97399 7.03459 26173 ft 409 kts 283°
2026-05-07 10:32 49.98043 6.99139 26500 ft 411 kts 283°
2026-05-07 10:32 49.98686 6.94796 26833 ft 413 kts 283°
2026-05-07 10:33 49.99172 6.90390 27161 ft 415 kts 275°
2026-05-07 10:33 49.99206 6.85953 27478 ft 418 kts 268°
2026-05-07 10:33 49.99064 6.81427 27759 ft 421 kts 268°
2026-05-07 10:33 49.98927 6.76869 28056 ft 424 kts 268°
2026-05-07 10:34 49.98792 6.72291 28371 ft 426 kts 268°
2026-05-07 10:34 49.98651 6.67687 28680 ft 428 kts 268°
2026-05-07 10:34 49.98507 6.63062 28984 ft 430 kts 268°
2026-05-07 10:34 49.98258 6.58422 29274 ft 432 kts 261°
2026-05-07 10:35 49.97562 6.53871 29527 ft 435 kts 252°
2026-05-07 10:35 49.96430 6.49500 29816 ft 437 kts 247°
2026-05-07 10:35 49.95205 6.45168 30081 ft 439 kts 247°
2026-05-07 10:35 49.93980 6.40820 30310 ft 441 kts 247°
2026-05-07 10:36 49.92755 6.36449 30558 ft 442 kts 247°
2026-05-07 10:36 49.91527 6.32063 30784 ft 444 kts 247°
2026-05-07 10:36 49.90298 6.27673 31098 ft 443 kts 247°
2026-05-07 10:36 49.89042 6.23314 31431 ft 442 kts 246°
2026-05-07 10:37 49.87787 6.18970 31754 ft 441 kts 247°
2026-05-07 10:37 49.86532 6.14633 32075 ft 441 kts 244°
2026-05-07 10:37 49.84986 6.10539 32378 ft 441 kts 236°
2026-05-07 10:37 49.83223 6.06652 32679 ft 441 kts 236°
2026-05-07 10:38 49.81457 6.02776 32990 ft 440 kts 236°
2026-05-07 10:38 49.79689 5.98916 33310 ft 439 kts 236°
2026-05-07 10:38 49.77920 5.95072 33634 ft 438 kts 235°
2026-05-07 10:38 49.76152 5.91248 33947 ft 437 kts 235°
2026-05-07 10:39 49.74500 5.87317 34209 ft 436 kts 243°
2026-05-07 10:39 49.73252 5.83056 34431 ft 434 kts 251°
2026-05-07 10:39 49.72242 5.78657 34652 ft 434 kts 251°
2026-05-07 10:39 49.71231 5.74261 34880 ft 434 kts 251°
2026-05-07 10:40 49.70213 5.69871 35017 ft 434 kts 251°
2026-05-07 10:40 49.69193 5.65500 35048 ft 431 kts 251°
2026-05-07 10:40 49.67159 5.56830 35050 ft 429 kts 251°
2026-05-07 10:41 49.65131 5.48183 35055 ft 428 kts 251°
2026-05-07 10:41 49.63089 5.39550 35064 ft 428 kts 251°
2026-05-07 10:42 49.61425 5.32358 35058 ft 428 kts 252°
2026-05-07 10:42 49.59577 5.23649 35059 ft 428 kts 253°
2026-05-07 10:43 49.58159 5.14766 35059 ft 427 kts 258°
2026-05-07 10:43 49.56833 5.05849 35056 ft 427 kts 257°
2026-05-07 10:44 49.55469 4.96951 35056 ft 427 kts 257°
2026-05-07 10:44 49.54097 4.88066 35054 ft 426 kts 257°
2026-05-07 10:45 49.52728 4.79190 35061 ft 426 kts 257°
2026-05-07 10:45 49.51360 4.70327 35062 ft 426 kts 257°
2026-05-07 10:46 49.49987 4.61477 35066 ft 426 kts 257°
2026-05-07 10:46 49.48594 4.52612 35071 ft 426 kts 257°
2026-05-07 10:47 49.47208 4.43774 35060 ft 424 kts 256°
2026-05-07 10:47 49.45815 4.34972 35068 ft 423 kts 256°
2026-05-07 10:48 49.44431 4.26241 35067 ft 423 kts 256°
2026-05-07 10:48 49.43028 4.17478 35073 ft 423 kts 256°
2026-05-07 10:49 49.41622 4.08722 35071 ft 422 kts 256°
2026-05-07 10:49 49.40213 3.99979 35067 ft 421 kts 256°
2026-05-07 10:50 49.38792 3.91258 35066 ft 421 kts 256°
2026-05-07 10:50 49.37369 3.82537 35063 ft 421 kts 256°
2026-05-07 10:51 49.35946 3.73818 35063 ft 421 kts 256°
2026-05-07 10:51 49.34511 3.65118 35059 ft 421 kts 256°
2026-05-07 10:52 49.33065 3.56421 35060 ft 421 kts 256°
2026-05-07 10:52 49.31623 3.47740 35064 ft 420 kts 256°
2026-05-07 10:53 49.30171 3.39061 35067 ft 420 kts 255°
2026-05-07 10:53 49.28711 3.30399 35062 ft 420 kts 255°
2026-05-07 10:54 49.27246 3.21741 35064 ft 420 kts 255°
2026-05-07 10:54 49.25776 3.13090 35051 ft 420 kts 255°
2026-05-07 10:55 49.24296 3.04453 35054 ft 419 kts 255°
2026-05-07 10:55 49.22817 2.95832 35059 ft 419 kts 255°
2026-05-07 10:56 49.21339 2.87213 35063 ft 419 kts 255°
2026-05-07 10:56 49.19844 2.78603 35076 ft 419 kts 255°
2026-05-07 10:57 49.18342 2.70008 35070 ft 419 kts 255°
2026-05-07 10:57 49.16838 2.61414 35084 ft 418 kts 255°
2026-05-07 10:58 49.15342 2.52885 35084 ft 418 kts 255°
2026-05-07 10:58 49.13826 2.44310 35088 ft 418 kts 255°
2026-05-07 10:59 49.12604 2.35645 35087 ft 418 kts 262°
2026-05-07 10:59 49.11801 2.26855 35064 ft 418 kts 262°
2026-05-07 11:00 49.10981 2.18079 35060 ft 418 kts 261°
2026-05-07 11:00 49.10154 2.09306 35060 ft 418 kts 261°
2026-05-07 11:01 49.08757 2.00743 35062 ft 417 kts 246°
2026-05-07 11:01 49.06332 1.92707 35052 ft 417 kts 245°
2026-05-07 11:02 49.03911 1.84670 35059 ft 417 kts 245°
2026-05-07 11:02 49.01489 1.76624 35064 ft 418 kts 245°
2026-05-07 11:03 48.99052 1.68588 35070 ft 418 kts 245°
2026-05-07 11:03 48.96616 1.60566 35080 ft 418 kts 245°
2026-05-07 11:04 48.94188 1.52595 35087 ft 418 kts 245°
2026-05-07 11:04 48.91734 1.44588 35089 ft 418 kts 245°
2026-05-07 11:05 48.89270 1.36591 35087 ft 418 kts 245°
2026-05-07 11:05 48.86812 1.28589 35089 ft 418 kts 245°
2026-05-07 11:06 48.84350 1.20594 35092 ft 418 kts 245°
2026-05-07 11:06 48.81874 1.12604 35091 ft 418 kts 245°
2026-05-07 11:07 48.79391 1.04638 35071 ft 417 kts 245°
2026-05-07 11:07 48.76910 0.96701 35070 ft 417 kts 244°
2026-05-07 11:08 48.74396 0.88784 35069 ft 417 kts 241°
2026-05-07 11:08 48.71390 0.81271 35074 ft 417 kts 238°
2026-05-07 11:09 48.68357 0.73794 35069 ft 417 kts 238°
2026-05-07 11:09 48.65319 0.66318 35069 ft 417 kts 238°
2026-05-07 11:10 48.62278 0.58854 35065 ft 417 kts 238°
2026-05-07 11:10 48.59257 0.51452 35068 ft 417 kts 238°
2026-05-07 11:11 48.56215 0.44011 35073 ft 416 kts 238°
2026-05-07 11:11 48.53167 0.36586 35077 ft 416 kts 238°
2026-05-07 11:12 48.50112 0.29174 35075 ft 416 kts 238°
2026-05-07 11:12 48.47056 0.21778 35073 ft 416 kts 238°
2026-05-07 11:13 48.44002 0.14394 35064 ft 415 kts 238°
2026-05-07 11:13 48.40937 0.07020 35067 ft 415 kts 238°
2026-05-07 11:14 48.37870 -0.00349 35068 ft 415 kts 238°
2026-05-07 11:14 48.34724 -0.07631 35071 ft 415 kts 234°
2026-05-07 11:15 48.31275 -0.14594 35072 ft 415 kts 232°
2026-05-07 11:15 48.27750 -0.21457 35072 ft 415 kts 232°
2026-05-07 11:16 48.24257 -0.28349 35076 ft 415 kts 233°
2026-05-07 11:16 48.20759 -0.35240 35062 ft 415 kts 232°
2026-05-07 11:17 48.17248 -0.42108 35066 ft 416 kts 232°
2026-05-07 11:17 48.13730 -0.48955 35049 ft 414 kts 232°
2026-05-07 11:18 48.10219 -0.55781 35045 ft 414 kts 232°
2026-05-07 11:18 48.06709 -0.62602 35039 ft 414 kts 232°
2026-05-07 11:19 48.03192 -0.69408 35043 ft 414 kts 232°
2026-05-07 11:19 47.99697 -0.76163 35034 ft 414 kts 232°
2026-05-07 11:20 47.96172 -0.82960 35044 ft 414 kts 232°
2026-05-07 11:20 47.92640 -0.89750 35052 ft 414 kts 232°
2026-05-07 11:21 47.89105 -0.96539 35050 ft 414 kts 232°
2026-05-07 11:21 47.85565 -1.03303 35045 ft 414 kts 232°
2026-05-07 11:22 47.82018 -1.10055 35044 ft 414 kts 232°
2026-05-07 11:22 47.78470 -1.16801 35030 ft 414 kts 232°
2026-05-07 11:23 47.74929 -1.23543 35034 ft 414 kts 232°
2026-05-07 11:23 47.71379 -1.30269 35039 ft 414 kts 232°
2026-05-07 11:24 47.67816 -1.36984 35029 ft 414 kts 231°
2026-05-07 11:24 47.64254 -1.43692 35027 ft 414 kts 231°
2026-05-07 11:25 47.60688 -1.50391 35019 ft 414 kts 231°
2026-05-07 11:25 47.56993 -1.56929 35012 ft 414 kts 228°
2026-05-07 11:26 47.53110 -1.63217 35013 ft 413 kts 227°
2026-05-07 11:26 47.49209 -1.69468 35016 ft 413 kts 227°
2026-05-07 11:27 47.45349 -1.75756 35014 ft 413 kts 228°
2026-05-07 11:27 47.41512 -1.82066 35013 ft 413 kts 228°
2026-05-07 11:28 47.37668 -1.88366 35017 ft 413 kts 228°
2026-05-07 11:28 47.33480 -1.94117 35014 ft 413 kts 214°
2026-05-07 11:29 47.28576 -1.98513 35021 ft 413 kts 212°
2026-05-07 11:29 47.23705 -2.02880 35019 ft 412 kts 212°
2026-05-07 11:30 47.18808 -2.07263 35023 ft 412 kts 212°
2026-05-07 11:30 47.13903 -2.11637 35021 ft 412 kts 212°
2026-05-07 11:31 47.09003 -2.15986 35018 ft 411 kts 212°
2026-05-07 11:31 47.04105 -2.20329 35021 ft 411 kts 212°
2026-05-07 11:32 46.97590 -2.26094 35024 ft 411 kts 212°
2026-05-07 11:33 46.92693 -2.30411 35022 ft 411 kts 212°
2026-05-07 11:33 46.87799 -2.34710 35025 ft 410 kts 212°
2026-05-07 11:34 46.82908 -2.39012 35023 ft 410 kts 212°
2026-05-07 11:34 46.78018 -2.43302 35024 ft 410 kts 212°
2026-05-07 11:35 46.73125 -2.47587 35035 ft 410 kts 211°
2026-05-07 11:35 46.68234 -2.51870 35036 ft 410 kts 211°
2026-05-07 11:36 46.63339 -2.56142 35031 ft 410 kts 211°
2026-05-07 11:36 46.58440 -2.60398 35034 ft 410 kts 211°
2026-05-07 11:37 46.53541 -2.64648 35021 ft 410 kts 211°
2026-05-07 11:37 46.48647 -2.68894 35024 ft 410 kts 211°
2026-05-07 11:38 46.43751 -2.73130 35027 ft 410 kts 211°
2026-05-07 11:38 46.38850 -2.77352 35028 ft 410 kts 211°
2026-05-07 11:39 46.33947 -2.81563 35041 ft 410 kts 211°
2026-05-07 11:39 46.29075 -2.85737 35028 ft 410 kts 211°
2026-05-07 11:40 46.24451 -2.90509 35027 ft 409 kts 220°
2026-05-07 11:40 46.20122 -2.95842 35024 ft 409 kts 220°
2026-05-07 11:41 46.15773 -3.01148 35025 ft 409 kts 220°
2026-05-07 11:41 46.11412 -3.06434 35019 ft 410 kts 220°
2026-05-07 11:42 46.07055 -3.11717 35023 ft 409 kts 220°
2026-05-07 11:42 46.02699 -3.17003 35035 ft 409 kts 220°
2026-05-07 11:43 45.98344 -3.22277 35026 ft 409 kts 219°
2026-05-07 11:43 45.93982 -3.27547 35016 ft 410 kts 219°
2026-05-07 11:44 45.89610 -3.32803 35009 ft 410 kts 219°
2026-05-07 11:44 45.85242 -3.38051 35013 ft 410 kts 219°
2026-05-07 11:45 45.80869 -3.43304 35012 ft 410 kts 219°
2026-05-07 11:45 45.76488 -3.48546 35013 ft 410 kts 219°
2026-05-07 11:46 45.72113 -3.53780 35020 ft 410 kts 219°
2026-05-07 11:46 45.67729 -3.59009 35009 ft 410 kts 219°
2026-05-07 11:47 45.63340 -3.64228 35009 ft 411 kts 219°
2026-05-07 11:47 45.58945 -3.69437 35009 ft 411 kts 219°
2026-05-07 11:48 45.54579 -3.74610 35008 ft 411 kts 219°
2026-05-07 11:48 45.50176 -3.79812 35004 ft 411 kts 219°
2026-05-07 11:49 45.45775 -3.85005 35010 ft 411 kts 219°
2026-05-07 11:49 45.41369 -3.90183 35014 ft 411 kts 219°
2026-05-07 11:50 45.36958 -3.95357 34992 ft 411 kts 219°
2026-05-07 11:50 45.32546 -4.00534 34987 ft 411 kts 219°
2026-05-07 11:51 45.28129 -4.05708 34977 ft 411 kts 219°
2026-05-07 11:51 45.23710 -4.10869 34986 ft 411 kts 219°
2026-05-07 11:52 45.19285 -4.16018 34988 ft 411 kts 219°
2026-05-07 11:52 45.14862 -4.21161 34986 ft 411 kts 219°
2026-05-07 11:53 45.10437 -4.26297 34981 ft 411 kts 219°
2026-05-07 11:53 45.06005 -4.31417 34985 ft 411 kts 219°
2026-05-07 11:54 45.01579 -4.36523 34989 ft 411 kts 219°
2026-05-07 11:54 44.97150 -4.41628 34986 ft 411 kts 219°
2026-05-07 11:55 44.92725 -4.46720 34988 ft 410 kts 219°
2026-05-07 11:55 44.88328 -4.51773 34983 ft 410 kts 219°
2026-05-07 11:56 44.83903 -4.56850 34990 ft 410 kts 218°
2026-05-07 11:56 44.79466 -4.61912 34984 ft 411 kts 219°
2026-05-07 11:57 44.75017 -4.66978 34971 ft 412 kts 219°
2026-05-07 11:57 44.70562 -4.72063 34970 ft 413 kts 219°
2026-05-07 11:58 44.66092 -4.77137 34964 ft 413 kts 219°
2026-05-07 11:58 44.61618 -4.82201 34966 ft 413 kts 219°
2026-05-07 11:59 44.57143 -4.87273 34966 ft 414 kts 219°
2026-05-07 11:59 44.52661 -4.92332 34970 ft 414 kts 219°
2026-05-07 12:00 44.47968 -4.96982 34968 ft 414 kts 212°
2026-05-07 12:00 44.43083 -5.01243 34965 ft 414 kts 212°
2026-05-07 12:01 44.38191 -5.05523 34967 ft 415 kts 212°
2026-05-07 12:01 44.33329 -5.09767 34963 ft 415 kts 212°
2026-05-07 12:02 44.28430 -5.14033 34959 ft 415 kts 212°
2026-05-07 12:02 44.23498 -5.18322 34956 ft 415 kts 212°
2026-05-07 12:03 44.18628 -5.22539 34962 ft 415 kts 212°
2026-05-07 12:03 44.13719 -5.26776 34958 ft 415 kts 212°
2026-05-07 12:04 44.08817 -5.31010 34953 ft 415 kts 212°
2026-05-07 12:04 44.03909 -5.35245 34950 ft 415 kts 213°
2026-05-07 12:05 43.98985 -5.39476 34932 ft 417 kts 212°
2026-05-07 12:05 43.94052 -5.43708 34934 ft 417 kts 213°
2026-05-07 12:06 43.89104 -5.47946 34930 ft 418 kts 212°
2026-05-07 12:06 43.84156 -5.52175 34928 ft 418 kts 212°
2026-05-07 12:07 43.79199 -5.56400 34935 ft 418 kts 212°
2026-05-07 12:07 43.74237 -5.60619 34935 ft 418 kts 213°
2026-05-07 12:08 43.69276 -5.64835 34932 ft 419 kts 212°
2026-05-07 12:08 43.64304 -5.69049 34910 ft 420 kts 212°
2026-05-07 12:09 43.59315 -5.73273 34902 ft 422 kts 213°
2026-05-07 12:09 43.54305 -5.77508 34903 ft 423 kts 213°
2026-05-07 12:10 43.49309 -5.81722 34900 ft 424 kts 213°
2026-05-07 12:10 43.44262 -5.85961 34898 ft 425 kts 213°
2026-05-07 12:11 43.39205 -5.90197 34900 ft 426 kts 213°
2026-05-07 12:11 43.34141 -5.94446 34901 ft 427 kts 213°
2026-05-07 12:12 43.29066 -5.98691 34901 ft 427 kts 213°
2026-05-07 12:12 43.23992 -6.02924 34894 ft 427 kts 213°
2026-05-07 12:13 43.18916 -6.07161 34894 ft 427 kts 213°
2026-05-07 12:13 43.13833 -6.11395 34890 ft 428 kts 214°
2026-05-07 12:14 43.08730 -6.15616 34879 ft 429 kts 213°
2026-05-07 12:14 43.03609 -6.19850 34876 ft 430 kts 214°
2026-05-07 12:15 42.98481 -6.24093 34879 ft 431 kts 214°
2026-05-07 12:15 42.93346 -6.28329 34882 ft 431 kts 213°
2026-05-07 12:16 42.88207 -6.32559 34885 ft 432 kts 214°
2026-05-07 12:16 42.83060 -6.36788 34878 ft 432 kts 214°
2026-05-07 12:17 42.77945 -6.40982 34876 ft 432 kts 214°
2026-05-07 12:17 42.72794 -6.45196 34878 ft 432 kts 214°
2026-05-07 12:18 42.67640 -6.49403 34863 ft 433 kts 214°
2026-05-07 12:18 42.62474 -6.53623 34864 ft 434 kts 214°
2026-05-07 12:19 42.57286 -6.57839 34864 ft 435 kts 214°
2026-05-07 12:19 42.52091 -6.62055 34868 ft 436 kts 214°
2026-05-07 12:20 42.46884 -6.66275 34873 ft 436 kts 214°
2026-05-07 12:20 42.41673 -6.70478 34864 ft 436 kts 214°
2026-05-07 12:21 42.36469 -6.74679 34867 ft 436 kts 214°
2026-05-07 12:21 42.31261 -6.78887 34872 ft 436 kts 214°
2026-05-07 12:22 42.26040 -6.83084 34869 ft 437 kts 214°
2026-05-07 12:22 42.21695 -6.86567 34864 ft 437 kts 214°
2026-05-07 12:23 42.15629 -6.91424 34874 ft 436 kts 215°
2026-05-07 12:23 42.10410 -6.95598 34887 ft 436 kts 215°
2026-05-07 12:24 42.06043 -6.99088 34887 ft 436 kts 215°
2026-05-07 12:24 42.00828 -7.03238 34895 ft 435 kts 214°
2026-05-07 12:25 41.95618 -7.07375 34886 ft 435 kts 215°
2026-05-07 12:25 41.90414 -7.11504 34883 ft 434 kts 215°
2026-05-07 12:26 41.85207 -7.15624 34880 ft 434 kts 215°
2026-05-07 12:26 41.80045 -7.19707 34880 ft 434 kts 215°
2026-05-07 12:27 41.74850 -7.23806 34852 ft 433 kts 216°
2026-05-07 12:27 41.69690 -7.27945 34869 ft 431 kts 217°
2026-05-07 12:28 41.64568 -7.32122 34882 ft 431 kts 217°
2026-05-07 12:28 41.59454 -7.36284 34886 ft 431 kts 217°
2026-05-07 12:29 41.54328 -7.40424 34888 ft 430 kts 216°
2026-05-07 12:29 41.49202 -7.44546 34876 ft 430 kts 217°
2026-05-07 12:30 41.44080 -7.48662 34884 ft 430 kts 217°
2026-05-07 12:30 41.38960 -7.52762 34885 ft 429 kts 217°
2026-05-07 12:31 41.33843 -7.56861 34892 ft 429 kts 217°
2026-05-07 12:31 41.28732 -7.60957 34861 ft 429 kts 218°
2026-05-07 12:32 41.23629 -7.65037 34888 ft 427 kts 218°
2026-05-07 12:32 41.18531 -7.69093 34895 ft 427 kts 218°
2026-05-07 12:33 41.10899 -7.75143 34890 ft 426 kts 218°
2026-05-07 12:33 41.05856 -7.79146 34868 ft 424 kts 218°
2026-05-07 12:34 41.00793 -7.83153 34886 ft 424 kts 218°
2026-05-07 12:34 40.95782 -7.87227 34890 ft 422 kts 220°
2026-05-07 12:35 40.90847 -7.91406 34899 ft 421 kts 220°
2026-05-07 12:35 40.85912 -7.95568 34897 ft 421 kts 220°
2026-05-07 12:36 40.80970 -7.99700 34887 ft 420 kts 220°
2026-05-07 12:36 40.76025 -8.03805 34887 ft 419 kts 220°
2026-05-07 12:37 40.71081 -8.07897 34891 ft 419 kts 220°
2026-05-07 12:37 40.66145 -8.11981 34890 ft 419 kts 220°
2026-05-07 12:38 40.61207 -8.16066 34872 ft 419 kts 220°
2026-05-07 12:38 40.56276 -8.20136 34894 ft 418 kts 220°
2026-05-07 12:39 40.51349 -8.24194 34901 ft 418 kts 220°
2026-05-07 12:39 40.46431 -8.28238 34898 ft 417 kts 220°
2026-05-07 12:40 40.41519 -8.32272 34893 ft 416 kts 220°
2026-05-07 12:40 40.36616 -8.36298 34881 ft 415 kts 219°
2026-05-07 12:41 40.31749 -8.40281 34892 ft 415 kts 219°
2026-05-07 12:41 40.26853 -8.44267 34895 ft 414 kts 219°
2026-05-07 12:42 40.21961 -8.48249 34897 ft 414 kts 219°
2026-05-07 12:42 40.17078 -8.52228 34901 ft 413 kts 219°
2026-05-07 12:43 40.12203 -8.56193 34893 ft 413 kts 219°
2026-05-07 12:43 40.07329 -8.60148 34897 ft 412 kts 219°
2026-05-07 12:44 40.02453 -8.64103 34910 ft 413 kts 219°
2026-05-07 12:44 39.97571 -8.68045 34930 ft 413 kts 219°
2026-05-07 12:45 39.92687 -8.71982 34925 ft 413 kts 219°
2026-05-07 12:45 39.87816 -8.75906 34939 ft 411 kts 219°
2026-05-07 12:46 39.82961 -8.79820 34955 ft 410 kts 219°
2026-05-07 12:46 39.78110 -8.83710 34956 ft 409 kts 219°
2026-05-07 12:47 39.73265 -8.87582 34949 ft 409 kts 219°
2026-05-07 12:47 39.68427 -8.91453 34923 ft 408 kts 219°
2026-05-07 12:48 39.63626 -8.95294 34928 ft 408 kts 219°
2026-05-07 12:48 39.58794 -8.99152 34925 ft 407 kts 219°
2026-05-07 12:49 39.53970 -9.03002 34925 ft 407 kts 219°
2026-05-07 12:49 39.49146 -9.06839 34917 ft 407 kts 219°
2026-05-07 12:50 39.44317 -9.10661 34907 ft 407 kts 218°
2026-05-07 12:50 39.39501 -9.14475 34930 ft 405 kts 219°
2026-05-07 12:51 39.34699 -9.18276 34937 ft 404 kts 219°
2026-05-07 12:51 39.29899 -9.22067 34939 ft 404 kts 219°
2026-05-07 12:52 39.25104 -9.25843 34939 ft 404 kts 218°
2026-05-07 12:52 39.20309 -9.29620 34917 ft 403 kts 219°
2026-05-07 12:53 39.15525 -9.33386 34945 ft 403 kts 218°
2026-05-07 12:53 39.10741 -9.37140 34954 ft 403 kts 218°
2026-05-07 12:54 39.05956 -9.40881 34959 ft 402 kts 218°
2026-05-07 12:54 39.01206 -9.44588 34949 ft 402 kts 218°
2026-05-07 12:55 38.96427 -9.48317 34929 ft 401 kts 218°
2026-05-07 12:55 38.91666 -9.52026 34946 ft 400 kts 218°
2026-05-07 12:56 38.86913 -9.55732 34954 ft 399 kts 218°
2026-05-07 12:56 38.82157 -9.59406 34956 ft 399 kts 218°
2026-05-07 12:57 38.77402 -9.63063 34952 ft 398 kts 218°
2026-05-07 12:57 38.72652 -9.66715 34949 ft 398 kts 218°
2026-05-07 12:58 38.67907 -9.70356 34952 ft 397 kts 218°
2026-05-07 12:58 38.63167 -9.73983 34955 ft 397 kts 218°
2026-05-07 12:59 38.58464 -9.77584 34951 ft 396 kts 218°
2026-05-07 12:59 38.53732 -9.81192 34950 ft 397 kts 217°
2026-05-07 13:00 38.48863 -9.84560 34959 ft 399 kts 214°
2026-05-07 13:00 38.43904 -9.87730 34949 ft 398 kts 214°
2026-05-07 13:01 38.38964 -9.90903 34962 ft 397 kts 214°
2026-05-07 13:01 38.34062 -9.94125 34965 ft 396 kts 214°
2026-05-07 13:02 38.29168 -9.97354 34969 ft 396 kts 214°
2026-05-07 13:02 38.24275 -10.00573 34970 ft 396 kts 214°
2026-05-07 13:03 38.19387 -10.03782 34961 ft 395 kts 214°
2026-05-07 13:03 38.14501 -10.06968 34968 ft 395 kts 214°
2026-05-07 13:04 38.09651 -10.10136 34967 ft 394 kts 214°
2026-05-07 13:04 38.04776 -10.13320 34970 ft 394 kts 214°
2026-05-07 13:05 37.99905 -10.16493 34969 ft 394 kts 214°
2026-05-07 13:05 37.95034 -10.19659 34969 ft 393 kts 214°
2026-05-07 13:06 37.90170 -10.22823 34976 ft 393 kts 214°
2026-05-07 13:06 37.85315 -10.25973 34980 ft 392 kts 214°
2026-05-07 13:07 37.80467 -10.29111 34980 ft 391 kts 214°
2026-05-07 13:07 37.75619 -10.32237 34977 ft 391 kts 214°
2026-05-07 13:08 37.70779 -10.35361 34962 ft 390 kts 214°
2026-05-07 13:08 37.65946 -10.38481 34962 ft 390 kts 214°
2026-05-07 13:09 37.61114 -10.41595 34966 ft 390 kts 214°
2026-05-07 13:09 37.56283 -10.44694 34968 ft 390 kts 214°
2026-05-07 13:10 37.51453 -10.47795 34969 ft 390 kts 214°
2026-05-07 13:10 37.46623 -10.50892 34945 ft 389 kts 214°
2026-05-07 13:11 37.41796 -10.53982 34956 ft 389 kts 214°
2026-05-07 13:11 37.36976 -10.57064 34963 ft 389 kts 214°
2026-05-07 13:12 37.32171 -10.60134 34975 ft 388 kts 214°
2026-05-07 13:12 37.27369 -10.63200 34978 ft 387 kts 214°
2026-05-07 13:13 37.22571 -10.66251 34967 ft 386 kts 213°
2026-05-07 13:13 37.17776 -10.69281 34972 ft 385 kts 213°
2026-05-07 13:14 37.13032 -10.72292 34976 ft 385 kts 214°
2026-05-07 13:14 37.08259 -10.75322 34974 ft 385 kts 214°
2026-05-07 13:15 37.03486 -10.78347 34974 ft 384 kts 214°
2026-05-07 13:15 36.99519 -10.80849 34976 ft 384 kts 213°
2026-05-07 13:16 36.94740 -10.83858 34964 ft 384 kts 213°
2026-05-07 13:16 36.89964 -10.86866 34973 ft 385 kts 213°
2026-05-07 13:17 36.85186 -10.89883 34971 ft 385 kts 214°
2026-05-07 13:17 36.80406 -10.92897 34976 ft 385 kts 214°
2026-05-07 13:18 36.75629 -10.95896 34985 ft 384 kts 213°
2026-05-07 13:18 36.70854 -10.98881 34962 ft 383 kts 213°
2026-05-07 13:19 36.66083 -11.01857 34977 ft 383 kts 213°
2026-05-07 13:19 36.61321 -11.04833 34983 ft 383 kts 213°
2026-05-07 13:20 36.56558 -11.07809 34989 ft 383 kts 213°
2026-05-07 13:20 36.51790 -11.10775 34998 ft 383 kts 213°
2026-05-07 13:21 36.47020 -11.13733 34999 ft 383 kts 213°
2026-05-07 13:21 36.42295 -11.16674 34988 ft 382 kts 213°
2026-05-07 13:22 36.37546 -11.19629 34993 ft 381 kts 213°
2026-05-07 13:22 36.32805 -11.22573 34991 ft 381 kts 213°
2026-05-07 13:23 36.28065 -11.25504 34992 ft 381 kts 213°
2026-05-07 13:23 36.23328 -11.28428 34990 ft 380 kts 213°
2026-05-07 13:24 36.18601 -11.31352 34969 ft 380 kts 213°
2026-05-07 13:24 36.13870 -11.34266 34981 ft 379 kts 212°
2026-05-07 13:25 36.09149 -11.37162 34986 ft 379 kts 212°
2026-05-07 13:25 36.04436 -11.40054 34998 ft 378 kts 213°
2026-05-07 13:26 35.99729 -11.42955 34997 ft 378 kts 213°
2026-05-07 13:26 35.95219 -11.46106 34997 ft 372 kts 220°
2026-05-07 13:27 35.91007 -11.49813 34978 ft 372 kts 220°
2026-05-07 13:27 35.86791 -11.53511 34982 ft 372 kts 220°
2026-05-07 13:28 35.82577 -11.57212 34986 ft 372 kts 220°
2026-05-07 13:28 35.78359 -11.60910 34992 ft 372 kts 220°
2026-05-07 13:29 35.74136 -11.64602 34991 ft 372 kts 220°
2026-05-07 13:29 35.69912 -11.68296 34993 ft 372 kts 220°
2026-05-07 13:30 35.65685 -11.71988 34974 ft 373 kts 220°
2026-05-07 13:30 35.61481 -11.75653 34983 ft 373 kts 220°
2026-05-07 13:31 35.57243 -11.79344 34990 ft 374 kts 220°
2026-05-07 13:31 35.53000 -11.83034 34994 ft 374 kts 220°
2026-05-07 13:32 35.48753 -11.86720 34998 ft 374 kts 220°
2026-05-07 13:32 35.44502 -11.90405 34999 ft 374 kts 220°
2026-05-07 13:33 35.40251 -11.94081 35001 ft 374 kts 220°
2026-05-07 13:33 35.36002 -11.97758 35002 ft 374 kts 220°
2026-05-07 13:34 35.29629 -12.03270 35004 ft 374 kts 220°
2026-05-07 13:35 35.25379 -12.06934 35014 ft 374 kts 220°
2026-05-07 13:35 35.21155 -12.10561 35020 ft 373 kts 219°
2026-05-07 13:36 35.16874 -12.14234 35019 ft 373 kts 219°
2026-05-07 13:36 35.12662 -12.17855 34992 ft 373 kts 220°
2026-05-07 13:37 35.08414 -12.21499 34998 ft 373 kts 219°
2026-05-07 13:37 35.04160 -12.25144 35000 ft 374 kts 219°
2026-05-07 13:38 34.99906 -12.28787 35001 ft 374 kts 220°
2026-05-07 13:38 34.95652 -12.32422 35001 ft 373 kts 219°
2026-05-07 13:39 34.91394 -12.36046 35001 ft 373 kts 219°
2026-05-07 13:39 34.87138 -12.39671 35001 ft 373 kts 219°
2026-05-07 13:40 34.82884 -12.43293 34985 ft 373 kts 219°
2026-05-07 13:40 34.78629 -12.46914 34995 ft 373 kts 219°
2026-05-07 13:41 34.74369 -12.50527 35000 ft 373 kts 219°
2026-05-07 13:41 34.70105 -12.54141 35004 ft 374 kts 219°
2026-05-07 13:42 34.65843 -12.57753 35011 ft 374 kts 219°
2026-05-07 13:42 34.61580 -12.61361 35013 ft 373 kts 219°
2026-05-07 13:43 34.57311 -12.64953 34995 ft 373 kts 219°
2026-05-07 13:43 34.53048 -12.68550 35001 ft 373 kts 219°
2026-05-07 13:44 34.48785 -12.72143 35004 ft 373 kts 219°
2026-05-07 13:44 34.44516 -12.75729 35014 ft 373 kts 219°
2026-05-07 13:45 34.40280 -12.79296 35026 ft 373 kts 219°
2026-05-07 13:45 34.36013 -12.82871 35032 ft 373 kts 219°
2026-05-07 13:46 34.31725 -12.86471 35249 ft 378 kts 219°
2026-05-07 13:46 34.29563 -12.88282 35473 ft 378 kts 219°
2026-05-07 13:46 34.27395 -12.90091 35736 ft 378 kts 219°
2026-05-07 13:46 34.25231 -12.91895 36023 ft 377 kts 219°
2026-05-07 13:47 34.23078 -12.93703 36318 ft 376 kts 219°
2026-05-07 13:47 34.20937 -12.95510 36606 ft 375 kts 219°
2026-05-07 13:47 34.18803 -12.97314 36889 ft 374 kts 219°
2026-05-07 13:47 34.16669 -12.99119 37009 ft 374 kts 220°
2026-05-07 13:48 34.14544 -13.00919 37025 ft 373 kts 220°
2026-05-07 13:48 34.10297 -13.04503 37027 ft 372 kts 219°
2026-05-07 13:49 34.06048 -13.08073 37030 ft 372 kts 219°
2026-05-07 13:49 34.01799 -13.11640 37009 ft 372 kts 219°
2026-05-07 13:50 33.97533 -13.15210 37055 ft 373 kts 219°
2026-05-07 13:50 33.93274 -13.18781 37054 ft 373 kts 219°
2026-05-07 13:51 33.89017 -13.22345 37048 ft 373 kts 219°
2026-05-07 13:51 33.84761 -13.25901 37046 ft 372 kts 219°
2026-05-07 13:52 33.80504 -13.29447 37047 ft 372 kts 219°
2026-05-07 13:52 33.76250 -13.32990 37045 ft 372 kts 219°
2026-05-07 13:53 33.72021 -13.36497 37009 ft 372 kts 219°
2026-05-07 13:53 33.67770 -13.40041 37017 ft 372 kts 219°
2026-05-07 13:54 33.63513 -13.43582 37020 ft 372 kts 219°
2026-05-07 13:54 33.59254 -13.47115 37025 ft 372 kts 219°
2026-05-07 13:55 33.54987 -13.50649 37050 ft 373 kts 219°
2026-05-07 13:55 33.50723 -13.54175 37053 ft 372 kts 219°
2026-05-07 13:56 33.46463 -13.57700 37031 ft 372 kts 219°
2026-05-07 13:56 33.42202 -13.61215 37012 ft 372 kts 219°
2026-05-07 13:57 33.37939 -13.64733 37016 ft 372 kts 219°
2026-05-07 13:57 33.33668 -13.68244 37023 ft 373 kts 219°
2026-05-07 13:58 33.29389 -13.71749 37030 ft 373 kts 219°
2026-05-07 13:58 33.25120 -13.75261 37033 ft 373 kts 219°
2026-05-07 13:59 33.20846 -13.78772 37040 ft 373 kts 219°
2026-05-07 13:59 33.16566 -13.82279 37015 ft 373 kts 219°
2026-05-07 14:00 33.12278 -13.85780 37033 ft 374 kts 219°
2026-05-07 14:00 33.07981 -13.89262 37043 ft 373 kts 219°
2026-05-07 14:01 33.03715 -13.92712 37047 ft 373 kts 219°
2026-05-07 14:01 32.99429 -13.96189 37048 ft 372 kts 219°
2026-05-07 14:02 32.95144 -13.99651 37046 ft 372 kts 219°
2026-05-07 14:02 32.90864 -14.03109 37045 ft 372 kts 219°
2026-05-07 14:03 32.86589 -14.06570 37010 ft 372 kts 219°
2026-05-07 14:03 32.82306 -14.10030 37017 ft 372 kts 219°
2026-05-07 14:04 32.78012 -14.13487 37025 ft 373 kts 219°
2026-05-07 14:04 32.73713 -14.16940 37029 ft 373 kts 219°
2026-05-07 14:05 32.69407 -14.20391 37038 ft 373 kts 219°
2026-05-07 14:05 32.65101 -14.23841 37050 ft 373 kts 220°
2026-05-07 14:06 32.60802 -14.27289 37050 ft 373 kts 220°
2026-05-07 14:06 32.56507 -14.30729 37050 ft 372 kts 220°
2026-05-07 14:07 32.52213 -14.34168 37049 ft 372 kts 220°
2026-05-07 14:07 32.47945 -14.37577 37055 ft 372 kts 220°
2026-05-07 14:08 32.43641 -14.41000 37050 ft 373 kts 220°
2026-05-07 14:08 32.39338 -14.44419 37049 ft 372 kts 220°
2026-05-07 14:09 32.35045 -14.47844 37047 ft 372 kts 220°
2026-05-07 14:09 32.31445 -14.50715 37054 ft 372 kts 220°
2026-05-07 14:10 32.27145 -14.54136 37020 ft 373 kts 220°
2026-05-07 14:10 32.22831 -14.57550 37038 ft 373 kts 220°
2026-05-07 14:11 32.18519 -14.60961 37047 ft 373 kts 220°
2026-05-07 14:11 32.14239 -14.64353 37043 ft 373 kts 220°
2026-05-07 14:12 32.09929 -14.67752 37043 ft 373 kts 220°
2026-05-07 14:12 32.05618 -14.71152 37045 ft 372 kts 220°
2026-05-07 14:13 32.01315 -14.74548 37003 ft 372 kts 220°
2026-05-07 14:13 31.97004 -14.77946 37014 ft 373 kts 220°
2026-05-07 14:14 31.92688 -14.81338 37026 ft 373 kts 220°
2026-05-07 14:14 31.88366 -14.84739 37030 ft 374 kts 220°
2026-05-07 14:15 31.84039 -14.88137 37037 ft 374 kts 220°
2026-05-07 14:15 31.79711 -14.91533 37041 ft 374 kts 220°
2026-05-07 14:16 31.75383 -14.94927 37060 ft 374 kts 221°
2026-05-07 14:16 31.71043 -14.98313 37020 ft 374 kts 221°
2026-05-07 14:17 31.66738 -15.01676 37024 ft 375 kts 221°
2026-05-07 14:17 31.62384 -15.05072 37027 ft 376 kts 221°
2026-05-07 14:18 31.58029 -15.08471 37031 ft 376 kts 221°
2026-05-07 14:18 31.53668 -15.11870 37039 ft 377 kts 221°
2026-05-07 14:19 31.49299 -15.15270 37047 ft 377 kts 221°
2026-05-07 14:19 31.44930 -15.18659 37051 ft 377 kts 221°
2026-05-07 14:20 31.40551 -15.22050 37018 ft 377 kts 221°
2026-05-07 14:20 31.36183 -15.25444 37022 ft 377 kts 221°
2026-05-07 14:21 31.31801 -15.28843 37030 ft 378 kts 221°
2026-05-07 14:21 31.27316 -15.32104 37038 ft 382 kts 218°
2026-05-07 14:22 31.22623 -15.35061 37040 ft 384 kts 216°
2026-05-07 14:22 31.17896 -15.37961 37050 ft 383 kts 216°
2026-05-07 14:23 31.13204 -15.40914 37024 ft 383 kts 217°
2026-05-07 14:23 31.08563 -15.43878 37030 ft 383 kts 217°
2026-05-07 14:24 31.03889 -15.46864 37029 ft 383 kts 217°
2026-05-07 14:24 30.99204 -15.49841 37040 ft 384 kts 217°
2026-05-07 14:25 30.94490 -15.52772 37049 ft 384 kts 216°
2026-05-07 14:25 30.89748 -15.55664 37053 ft 385 kts 216°
2026-05-07 14:26 30.85010 -15.58564 37060 ft 385 kts 216°
2026-05-07 14:26 30.80272 -15.61473 37018 ft 386 kts 216°
2026-05-07 14:27 30.75519 -15.64384 37042 ft 386 kts 217°
2026-05-07 14:27 30.70762 -15.67294 37046 ft 387 kts 217°
2026-05-07 14:28 30.66000 -15.70202 37042 ft 387 kts 217°
2026-05-07 14:28 30.61239 -15.73102 37044 ft 387 kts 217°
2026-05-07 14:29 30.56480 -15.76014 37050 ft 386 kts 217°
2026-05-07 14:29 30.51708 -15.78925 37039 ft 389 kts 217°
2026-05-07 14:30 30.46938 -15.81822 37047 ft 390 kts 217°
2026-05-07 14:30 30.42139 -15.84737 37049 ft 390 kts 217°
2026-05-07 14:31 30.37338 -15.87651 37054 ft 389 kts 217°
2026-05-07 14:31 30.32536 -15.90561 37054 ft 389 kts 217°
2026-05-07 14:32 30.27738 -15.93467 37055 ft 389 kts 217°
2026-05-07 14:32 30.22934 -15.96374 37027 ft 390 kts 217°
2026-05-07 14:33 30.18123 -15.99275 37034 ft 390 kts 216°
2026-05-07 14:33 30.13313 -16.02183 37034 ft 391 kts 217°
2026-05-07 14:34 30.08488 -16.05093 37046 ft 391 kts 217°
2026-05-07 14:34 30.03665 -16.07998 37049 ft 391 kts 217°
2026-05-07 14:35 29.98833 -16.10905 37057 ft 392 kts 217°
2026-05-07 14:35 29.93996 -16.13808 37024 ft 392 kts 217°
2026-05-07 14:36 29.89191 -16.16693 37035 ft 392 kts 217°
2026-05-07 14:36 29.84351 -16.19599 37039 ft 392 kts 217°
2026-05-07 14:37 29.79506 -16.22497 37040 ft 393 kts 217°
2026-05-07 14:37 29.72231 -16.26843 37049 ft 393 kts 217°
2026-05-07 14:38 29.67376 -16.29742 37054 ft 393 kts 217°
2026-05-07 14:38 29.62526 -16.32633 37057 ft 393 kts 217°
2026-05-07 14:39 29.57669 -16.35526 37045 ft 393 kts 217°
2026-05-07 14:39 29.55237 -16.36974 36911 ft 395 kts 217°
2026-05-07 14:39 29.52804 -16.38424 36654 ft 394 kts 217°
2026-05-07 14:40 29.50374 -16.39873 36400 ft 393 kts 217°
2026-05-07 14:40 29.47944 -16.41322 36147 ft 394 kts 217°
2026-05-07 14:40 29.45527 -16.42760 35811 ft 389 kts 216°
2026-05-07 14:40 29.43137 -16.44176 35363 ft 385 kts 216°
2026-05-07 14:41 29.40766 -16.45576 34895 ft 382 kts 216°
2026-05-07 14:41 29.38416 -16.46964 34435 ft 378 kts 216°
2026-05-07 14:41 29.36085 -16.48341 33973 ft 375 kts 216°
2026-05-07 14:41 29.33805 -16.49689 33483 ft 371 kts 216°
2026-05-07 14:42 29.31526 -16.51037 33039 ft 367 kts 216°
2026-05-07 14:42 29.29269 -16.52373 32601 ft 363 kts 216°
2026-05-07 14:42 29.27038 -16.53693 32167 ft 359 kts 216°
2026-05-07 14:42 29.24828 -16.55000 31739 ft 355 kts 216°
2026-05-07 14:43 29.22645 -16.56294 31303 ft 352 kts 216°
2026-05-07 14:43 29.20482 -16.57578 30904 ft 348 kts 215°
2026-05-07 14:43 29.18340 -16.58848 30504 ft 345 kts 215°
2026-05-07 14:43 29.16214 -16.60104 30103 ft 342 kts 215°
2026-05-07 14:44 29.14109 -16.61346 29672 ft 338 kts 215°
2026-05-07 14:44 29.12034 -16.62569 29290 ft 333 kts 215°
2026-05-07 14:44 29.09990 -16.63774 28927 ft 328 kts 215°
2026-05-07 14:44 29.07974 -16.64961 28567 ft 323 kts 215°
2026-05-07 14:45 29.05987 -16.66129 28213 ft 320 kts 215°
2026-05-07 14:45 29.04010 -16.67294 27851 ft 319 kts 215°
2026-05-07 14:45 29.02039 -16.68456 27496 ft 318 kts 215°
2026-05-07 14:45 29.00079 -16.69612 27134 ft 316 kts 215°
2026-05-07 14:46 28.98133 -16.70759 26763 ft 314 kts 215°
2026-05-07 14:46 28.96200 -16.71897 26400 ft 312 kts 215°
2026-05-07 14:46 28.94280 -16.73027 26020 ft 310 kts 215°
2026-05-07 14:46 28.92367 -16.74149 25636 ft 308 kts 215°
2026-05-07 14:47 28.90469 -16.75260 25252 ft 306 kts 215°
2026-05-07 14:47 28.88581 -16.76366 24873 ft 304 kts 215°
2026-05-07 14:47 28.86712 -16.77465 24485 ft 302 kts 215°
2026-05-07 14:47 28.84851 -16.78559 24094 ft 300 kts 214°
2026-05-07 14:48 28.82995 -16.79647 23702 ft 299 kts 214°
2026-05-07 14:48 28.81147 -16.80729 23265 ft 298 kts 214°
2026-05-07 14:48 28.79310 -16.81803 22875 ft 295 kts 214°
2026-05-07 14:48 28.77491 -16.82865 22498 ft 293 kts 214°
2026-05-07 14:49 28.75686 -16.83922 22132 ft 290 kts 214°
2026-05-07 14:49 28.73895 -16.84972 21753 ft 289 kts 214°
2026-05-07 14:49 28.72109 -16.86021 21390 ft 288 kts 214°
2026-05-07 14:49 28.70331 -16.87063 21032 ft 287 kts 214°
2026-05-07 14:50 28.68556 -16.88101 20677 ft 286 kts 214°
2026-05-07 14:50 28.66789 -16.89133 20318 ft 285 kts 213°
2026-05-07 14:50 28.65028 -16.90159 19963 ft 284 kts 213°
2026-05-07 14:50 28.63270 -16.91182 19608 ft 284 kts 213°
2026-05-07 14:51 28.61513 -16.92205 19257 ft 283 kts 213°
2026-05-07 14:51 28.59760 -16.93225 18906 ft 283 kts 213°
2026-05-07 14:51 28.58030 -16.94232 18550 ft 283 kts 213°
2026-05-07 14:51 28.56272 -16.95257 18185 ft 284 kts 213°
2026-05-07 14:52 28.54519 -16.96279 17816 ft 283 kts 213°
2026-05-07 14:52 28.52772 -16.97298 17468 ft 282 kts 212°
2026-05-07 14:52 28.51032 -16.98311 17123 ft 280 kts 212°
2026-05-07 14:52 28.49301 -16.99317 16791 ft 279 kts 212°
2026-05-07 14:53 28.47565 -17.00307 16378 ft 282 kts 208°
2026-05-07 14:53 28.45573 -17.00793 15613 ft 308 kts 185°
2026-05-07 14:53 28.43382 -17.00583 14790 ft 319 kts 179°
2026-05-07 14:53 28.41166 -17.00299 14001 ft 321 kts 178°
2026-05-07 14:54 28.38960 -17.00000 13380 ft 315 kts 178°
2026-05-07 14:54 28.36823 -16.99704 12983 ft 302 kts 178°
2026-05-07 14:54 28.34778 -16.99426 12622 ft 290 kts 178°
2026-05-07 14:54 28.32808 -16.99165 12274 ft 279 kts 178°
2026-05-07 14:55 28.30897 -16.98917 11927 ft 277 kts 178°
2026-05-07 14:55 28.28984 -16.98674 11581 ft 276 kts 177°
2026-05-07 14:55 28.27077 -16.98432 11231 ft 276 kts 177°
2026-05-07 14:55 28.25171 -16.98190 10869 ft 275 kts 177°
2026-05-07 14:56 28.23269 -16.97949 10525 ft 276 kts 176°
2026-05-07 14:56 28.21392 -16.97708 10283 ft 272 kts 176°
2026-05-07 14:56 28.19533 -16.97467 10098 ft 266 kts 176°
2026-05-07 14:56 28.17716 -16.97231 10040 ft 263 kts 175°
2026-05-07 14:57 28.15932 -16.96733 9872 ft 269 kts 161°
2026-05-07 14:57 28.14183 -16.95961 9487 ft 270 kts 160°
2026-05-07 14:57 28.12439 -16.95178 9145 ft 269 kts 160°
2026-05-07 14:57 28.10707 -16.94397 8828 ft 267 kts 160°
2026-05-07 14:58 28.08979 -16.93613 8470 ft 266 kts 160°
2026-05-07 14:58 28.07272 -16.92833 8149 ft 264 kts 160°
2026-05-07 14:58 28.05570 -16.92054 7790 ft 263 kts 160°
2026-05-07 14:58 28.03875 -16.91276 7443 ft 262 kts 160°
2026-05-07 14:59 28.02189 -16.90500 7113 ft 261 kts 160°
2026-05-07 14:59 28.00520 -16.89731 6695 ft 258 kts 160°
2026-05-07 14:59 27.98863 -16.88966 6150 ft 256 kts 159°
2026-05-07 14:59 27.97335 -16.87930 5499 ft 261 kts 139°
2026-05-07 15:00 27.96220 -16.86336 5036 ft 255 kts 116°
2026-05-07 15:00 27.95685 -16.84491 4814 ft 240 kts 96°
2026-05-07 15:00 27.95691 -16.82664 4560 ft 227 kts 77°
2026-05-07 15:00 27.95957 -16.81545 4357 ft 220 kts 66°
2026-05-07 15:01 27.96515 -16.79954 4093 ft 218 kts 66°
2026-05-07 15:01 27.97075 -16.78359 3807 ft 219 kts 66°
2026-05-07 15:01 27.97637 -16.76756 3518 ft 219 kts 66°
2026-05-07 15:01 27.98192 -16.75169 3225 ft 213 kts 66°
2026-05-07 15:02 27.98725 -16.73644 2958 ft 205 kts 65°
2026-05-07 15:02 27.99244 -16.72161 2685 ft 200 kts 66°
2026-05-07 15:02 27.99750 -16.70713 2415 ft 196 kts 66°
2026-05-07 15:02 28.00246 -16.69296 2153 ft 190 kts 68°
2026-05-07 15:03 28.00715 -16.67953 1907 ft 178 kts 67°
2026-05-07 15:03 28.01158 -16.66685 1688 ft 168 kts 68°
2026-05-07 15:03 28.01564 -16.65521 1470 ft 151 kts 68°
2026-05-07 15:03 28.01931 -16.64471 1282 ft 136 kts 68°
2026-05-07 15:04 28.02277 -16.63479 1094 ft 134 kts 69°
2026-05-07 15:04 28.02614 -16.62512 924 ft 132 kts 69°
2026-05-07 15:04 28.02945 -16.61547 724 ft 132 kts 72°
2026-05-07 15:04 28.03275 -16.60599 585 ft 132 kts 72°
2026-05-07 15:05 28.03609 -16.59628 392 ft 131 kts 70°
2026-05-07 15:05 28.03946 -16.58676 236 ft 129 kts 71°
2026-05-07 15:05 28.04254 -16.57804 199 ft 105 kts 67°
2026-05-07 15:05 28.04459 -16.57216 202 ft 55 kts 68°
2026-05-07 15:06 28.04604 -16.56943 208 ft 33 kts 49°
2026-05-07 15:06 28.04712 -16.56809 215 ft 15 kts 40°
2026-05-07 15:06 28.04764 -16.56807 219 ft 9 kts 328°
2026-05-07 15:06 28.04747 -16.56941 220 ft 26 kts 249°
2026-05-07 15:07 28.04678 -16.57133 225 ft 27 kts 244°
2026-05-07 15:07 28.04602 -16.57331 224 ft 29 kts 248°
2026-05-07 15:07 28.04530 -16.57544 223 ft 29 kts 249°
2026-05-07 15:07 28.04527 -16.57682 223 ft 14 kts 332°
2026-05-07 15:08 28.04592 -16.57740 224 ft 11 kts 284°
2026-05-07 15:08 28.04573 -16.57817 226 ft 10 kts 248°
2026-05-07 15:08 28.04558 -16.57887 225 ft 9 kts 274°
2026-05-07 15:08 28.04594 -16.57901 226 ft 8 kts 11°
2026-05-07 15:09 28.04635 -16.57897 226 ft 1 kts
2026-05-07 15:09 28.04640 -16.57896 226 ft 1 kts